Flag for Germany Weather past 2 weeks in Buxtehude, Lower Saxony, Germany

Now
63 °F

Scattered showers. Scattered clouds.


Feels Like: 63 °F
Forecast: 48 / 58 °F
Wind: 20 mph from Northwest

Location: Hamburg-Fuhlsbuettel

Current Time: Sep 21, 2014 at 4:30:53 PM

Latest Report: Sep 21, 2014 at 3:50 PM


Visibility: N/A

Pressure: 29.89 "Hg

Humidity: 68%

Dew point: 52 °F

Location of BuxtehudeLocation

Historic Weather in Buxtehude — Graph

°F

Buxtehude temperature yesterday

Maximum temperature yesterday: 73 °F (at 1:20 PM)
Minimum temperature yesterday: 54 °F (at 5:50 AM)
Average temperature yesterday: 62 °F

Past Weeks' High & Low Weather Summary

 TemperatureHumidityPressure
High77 °F (Sep 6, 3:20 PM)100% (Sep 6, 11:20 PM)30.24 "Hg (Sep 6, 11:20 PM)
Low48 °F (Sep 12, 5:20 AM)49% (Sep 8, 1:50 PM)29.86 "Hg (Sep 6, 3:20 PM)
Average62 °F84%30.03 "Hg
* Reported Sep 6 3:20 PM — Sep 21 3:20 PM, Buxtehude, Weather by CustomWeather, © 2014

Note: Actual official high and low records may vary slightly from our data, if they occured in-between our weather recording intervals... More about our weather records

Advertising

Buxtehude weather history for previous 24 hours

 ConditionsComfort  
Time TempWeatherWind HumidityBarometerVisibility
3:20 PM
Sep 21
64 °FScattered clouds.15 mph60%29.89 "HgN/A
2:50 PM64 °FScattered clouds.14 mph60%29.89 "HgN/A
2:20 PM63 °FScattered clouds.14 mph59%29.89 "HgN/A
1:50 PM64 °FPassing clouds.12 mph56%29.89 "HgN/A
1:20 PM63 °FScattered clouds.14 mph68%29.92 "HgN/A
12:50 PM63 °FScattered clouds.15 mph68%29.92 "HgN/A
12:20 PM63 °FScattered clouds.15 mph64%29.92 "HgN/A
11:20 AM63 °FPassing clouds.17 mph68%29.92 "HgN/A
10:50 AM61 °FPassing clouds.15 mph77%29.92 "HgN/A
10:20 AM59 °FBroken clouds.20 mph88%29.89 "HgN/A
9:50 AM61 °FBroken clouds.16 mph88%29.89 "HgN/A
9:20 AM61 °FBroken clouds.14 mph88%29.89 "HgN/A
8:50 AM61 °FLight rain. Partly sunny.10 mph94%29.86 "Hg4 mi
8:20 AM59 °FDrizzle. Broken clouds.5 mph94%29.86 "Hg4 mi
7:50 AM59 °FFog.3 mph94%29.86 "Hg3 mi
7:20 AM57 °FFog.6 mph100%29.86 "Hg3 mi
6:50 AM57 °FFog.5 mph100%29.86 "Hg4 mi
6:20 AM59 °FPassing clouds.5 mph94%29.86 "Hg4 mi
5:50 AM59 °FPassing clouds.7 mph94%29.89 "Hg4 mi
5:20 AM59 °FSprinkles. Partly cloudy.8 mph94%29.89 "Hg4 mi
4:50 AM61 °FFog.10 mph88%29.89 "Hg3 mi
4:20 AM61 °FFog.10 mph94%29.89 "Hg2 mi
3:50 AM61 °FFog.8 mph100%29.89 "Hg2 mi
3:20 AM61 °FFog.9 mph100%29.89 "Hg1 mi
2:50 AM61 °FFog.8 mph100%29.89 "Hg1 mi
2:20 AM61 °FFog.6 mph100%29.89 "Hg1 mi
1:50 AM61 °FFog.7 mph100%29.89 "Hg1 mi
1:20 AM61 °FPassing clouds.7 mph100%29.89 "Hg4 mi
12:20 AM59 °FFog.2 mph94%29.89 "Hg5 mi
11:50 PM
Sep 20
59 °FFog.1 mph100%29.89 "HgN/A
11:20 PM61 °FClear.3 mph94%29.89 "Hg10 mi
10:20 PM63 °FClear.6 mph88%29.89 "Hg10 mi
9:50 PM64 °FPassing clouds.6 mph83%29.89 "HgN/A
9:20 PM64 °FPassing clouds.6 mph78%29.89 "HgN/A
8:50 PM64 °FPartly cloudy.6 mph83%29.89 "HgN/A
8:20 PM63 °FPartly sunny.3 mph88%29.89 "HgN/A
7:50 PM64 °FPartly sunny.2 mph83%29.89 "HgN/A
Weather by CustomWeather, © 2014

See weather overviewHow to use our weather pages